Change the Weather History Date:

Wednesday, March 7, 2012

  Actual Average Record
Temperature  
Mean Temperature 57 °F 34 °F  
Max Temperature 66 °F 43 °F 75 °F (2000)
Min Temperature 47 °F 25 °F -1 °F (1943)
Degree Days  
Heating Degree Days 8 31  
Month to date heating degree days 183 224  
Since 1 July heating degree days 4201 4800  
Cooling Degree Days 0 0  
Month to date cooling degree days 0 0  
Year to date cooling degree days 0 0  
Growing Degree Days 6 (Base 50)    
Moisture  
Dew Point 34 °F    
Average Humidity 43    
Maximum Humidity 51    
Minimum Humidity 35    
Precipitation  
Precipitation 0.00 in 0.08 in 0.63 in (1975)
Month to date precipitation 1.15 0.53  
Year to date precipitation 5.35 4.65  
Snow  
Snow 0.00 in 0.30 in - ()
Month to date snowfall 3.7 1.7  
Since 1 July snowfall 20.8 32.2  
Snow Depth 0.00 in    
Sea Level Pressure  
Sea Level Pressure 30.09 in    
Wind  
Wind Speed 18 mph (SSW)    
Max Wind Speed 35 mph    
Max Gust Speed 47 mph    
Visibility 10 miles    
Events      
T = Trace of Precipitation, MM = Missing Value Source: NWS Daily Summary

Daily Weather History Graph

Daily Weather History Graph

Search for Another Location

Airport or City:

Trip Planner

Search our weather history database for the weather conditions in past years. The results will help you decide how hot, cold, wet, or windy it might be!

Date:

Astronomy

Mar. 07, 2012 Rise Set
Actual Time 6:59 AM EST 6:33 PM EST
Civil Twilight 6:31 AM EST 7:01 PM EST
Nautical Twilight 5:59 AM EST 7:33 PM EST
Astronomical Twilight 5:27 AM EST 8:05 PM EST
Moon 6:08 PM EST (3/7) 6:09 AM EST (3/7)
Length of Visible Light 12h 29m
Length of Day
11h 33m
Waxing Gibbous, 99% of the Moon is Illuminated
Mar 7
Waxing Gibbous
Mar 8
Full
Mar 14
Last Quarter
Mar 22
New
Mar 30
First Quarter

Hourly Weather History & Observations

Time (EST) Temp. Dew Point Humidity Pressure Visibility Wind Dir Wind Speed Gust Speed Precip Events Conditions
12:52 AM 50.0 °F 28.9 °F 44% 30.15 in 10.0 mi SSW 12.7 mph 20.7 mph N/A   Clear
1:52 AM 50.0 °F 28.0 °F 43% 30.16 in 10.0 mi SSW 12.7 mph 18.4 mph N/A   Clear
2:52 AM 48.9 °F 27.0 °F 43% 30.15 in 10.0 mi SSW 11.5 mph 19.6 mph N/A   Clear
3:52 AM 50.0 °F 26.1 °F 39% 30.15 in 10.0 mi SSW 15.0 mph 24.2 mph N/A   Clear
4:52 AM 48.0 °F 27.0 °F 44% 30.16 in 10.0 mi South 11.5 mph - N/A   Clear
5:52 AM 46.9 °F 27.0 °F 46% 30.17 in 10.0 mi SSW 11.5 mph 23.0 mph N/A   Clear
6:52 AM 46.9 °F 27.0 °F 46% 30.18 in 10.0 mi SSW 15.0 mph - N/A   Clear
7:52 AM 48.9 °F 27.0 °F 43% 30.18 in 10.0 mi SSW 16.1 mph 24.2 mph N/A   Clear
8:52 AM 52.0 °F 28.0 °F 40% 30.18 in 10.0 mi SSW 18.4 mph 29.9 mph N/A   Clear
9:52 AM 55.0 °F 28.9 °F 37% 30.17 in 10.0 mi SSW 26.5 mph 39.1 mph N/A   Clear
10:52 AM 57.9 °F 30.0 °F 35% 30.14 in 10.0 mi SSW 18.4 mph 40.3 mph N/A   Clear
11:52 AM 61.0 °F 33.1 °F 35% 30.12 in 10.0 mi SW 25.3 mph 40.3 mph N/A   Clear
12:52 PM 62.1 °F 37.0 °F 39% 30.09 in 10.0 mi SSW 20.7 mph 34.5 mph N/A   Clear
1:52 PM 64.9 °F 39.9 °F 40% 30.07 in 10.0 mi SSW 26.5 mph 47.2 mph N/A   Clear
2:52 PM 66.0 °F 39.9 °F 38% 30.05 in 10.0 mi SSW 23.0 mph 39.1 mph N/A   Clear
3:52 PM 64.9 °F 39.0 °F 39% 30.04 in 10.0 mi SSW 23.0 mph 35.7 mph N/A   Clear
4:52 PM 64.0 °F 37.9 °F 38% 30.03 in 10.0 mi SSW 19.6 mph 31.1 mph N/A   Clear
5:52 PM 64.0 °F 39.0 °F 40% 30.02 in 10.0 mi SSW 19.6 mph 32.2 mph N/A   Clear
6:52 PM 63.0 °F 41.0 °F 45% 30.01 in 10.0 mi SSW 18.4 mph 27.6 mph N/A   Clear
7:52 PM 62.1 °F 41.0 °F 46% 30.02 in 10.0 mi SSW 17.3 mph 29.9 mph N/A   Partly Cloudy
8:52 PM 61.0 °F 42.1 °F 50% 30.02 in 10.0 mi SSW 16.1 mph 27.6 mph N/A   Mostly Cloudy
9:52 PM 60.1 °F 42.1 °F 51% 30.00 in 10.0 mi SSW 18.4 mph 28.8 mph N/A   Partly Cloudy
10:52 PM 60.1 °F 43.0 °F 53% 29.99 in 10.0 mi SSW 17.3 mph 27.6 mph N/A   Overcast
11:52 PM 61.0 °F 44.1 °F 54% 29.96 in 10.0 mi SSW 21.9 mph 33.4 mph N/A   Overcast